Lancaster, SC

10:04 PM EST on December 05, 2016 (GMT -0500)
Lancaster County-McWhirter

Weather History for KLKR - October, 2013

Change the Weather History Date:

Sunday, October 6, 2013

  Actual Average (KUZA) Record (KUZA)
Temperature  
Mean Temperature 72 °F -  
Max Temperature 84 °F 76 °F 92 °F (1951)
Min Temperature 59 °F 52 °F 38 °F (1974)
Cooling Degree Days 6    
Growing Degree Days 22 (Base 50)    
Moisture  
Dew Point 66 °F    
Average Humidity 86    
Maximum Humidity 100    
Minimum Humidity 51    
Precipitation  
Precipitation 0.00 in - - ()
Sea Level Pressure  
Sea Level Pressure 30.01 in    
Wind  
Wind Speed 1 mph (SSE)    
Max Wind Speed 6 mph    
Max Gust Speed -    
Visibility 8 miles    
Events      
Averages and records for this station are not official NWS values.
T = Trace of Precipitation, MM = Missing Value Source: NWS Daily Summary

Daily Weather History Graph

Daily Weather History Graph

Search for Another Location

Airport or City:

Trip Planner

Search our weather history database for the weather conditions in past years. The results will help you decide how hot, cold, wet, or windy it might be!

Date:

Astronomy

Oct. 06, 2013 Rise Set
Actual Time 7:22 AM EDT 7:00 PM EDT
Civil Twilight 6:56 AM EDT 7:25 PM EDT
Nautical Twilight 6:27 AM EDT 7:54 PM EDT
Astronomical Twilight 5:58 AM EDT 8:23 PM EDT
Moon 8:59 AM EDT 8:04 PM EDT
Length of Visible Light 12h 28m
Length of Day
11h 38m
Waxing Crescent, 3% of the Moon is Illuminated
Oct 6
Waxing Crescent
Oct 11
First Quarter
Oct 18
Full
Oct 26
Last Quarter
Nov 3
New

Hourly Weather History & Observations

Time (EDT) Temp. Heat Index Dew Point Humidity Pressure Visibility Wind Dir Wind Speed Gust Speed Precip Events Conditions
12:15 AM 64.4 °F - 64.4 °F 100% 30.08 in 9.0 mi Calm Calm - N/A   Clear
12:35 AM 64.4 °F - 64.4 °F 100% 30.08 in 10.0 mi Calm Calm - N/A   Clear
12:55 AM 64.4 °F - 64.4 °F 100% 30.08 in 10.0 mi Calm Calm - N/A   Clear
1:15 AM 64.4 °F - 64.4 °F 100% 30.08 in 8.0 mi Calm Calm - N/A   Clear
1:35 AM 64.4 °F - 64.4 °F 100% 30.07 in 7.0 mi Calm Calm - N/A   Clear
1:55 AM 64.4 °F - 64.4 °F 100% 30.07 in 6.0 mi Calm Calm - N/A   Partly Cloudy
2:15 AM 64.4 °F - 64.4 °F 100% 30.06 in 7.0 mi Calm Calm - N/A   Partly Cloudy
2:35 AM 62.6 °F - 62.6 °F 100% 30.06 in 5.0 mi Calm Calm - N/A   Scattered Clouds
2:55 AM 64.4 °F - 64.4 °F 100% 30.05 in 6.0 mi Calm Calm - N/A   Scattered Clouds
3:15 AM 62.6 °F - 62.6 °F 100% 30.05 in 5.0 mi Calm Calm - N/A   Partly Cloudy
3:35 AM 62.6 °F - 62.6 °F 100% 30.05 in 4.0 mi Calm Calm - N/A   Partly Cloudy
3:55 AM 62.6 °F - 62.6 °F 100% 30.04 in 4.0 mi Calm Calm - N/A   Partly Cloudy
4:15 AM 62.6 °F - 62.6 °F 100% 30.03 in 4.0 mi Calm Calm - N/A   Partly Cloudy
4:35 AM 62.6 °F - 62.6 °F 100% 30.03 in 3.0 mi Calm Calm - N/A   Partly Cloudy
4:55 AM 62.6 °F - 62.6 °F 100% 30.03 in 3.0 mi Calm Calm - N/A   Clear
5:15 AM 60.8 °F - 60.8 °F 100% 30.03 in 3.0 mi Calm Calm - N/A   Clear
5:35 AM 60.8 °F - 60.8 °F 100% 30.03 in 4.0 mi Calm Calm - N/A   Clear
5:55 AM 60.8 °F - 60.8 °F 100% 30.04 in 3.0 mi Calm Calm - N/A   Clear
6:15 AM 59.0 °F - 59.0 °F 100% 30.04 in 3.0 mi Calm Calm - N/A   Clear
6:35 AM 59.0 °F - 59.0 °F 100% 30.04 in 4.0 mi Calm Calm - N/A   Clear
6:55 AM 59.0 °F - 59.0 °F 100% 30.05 in 4.0 mi Calm Calm - N/A   Clear
7:15 AM 59.0 °F - 59.0 °F 100% 30.05 in 3.0 mi Calm Calm - N/A   Clear
7:35 AM 59.0 °F - 59.0 °F 100% 30.06 in 2.5 mi Calm Calm - N/A   Clear
7:55 AM 59.0 °F - 59.0 °F 100% 30.06 in 2.0 mi Calm Calm - N/A   Clear
8:15 AM 59.0 °F - 59.0 °F 100% 30.07 in 2.5 mi Calm Calm - N/A   Clear
8:35 AM 60.8 °F - 60.8 °F 100% 30.07 in 4.0 mi Calm Calm - N/A   Clear
8:55 AM 64.4 °F - 64.4 °F 100% 30.07 in 5.0 mi Calm Calm - N/A   Clear
9:15 AM 66.2 °F - 66.2 °F 100% 30.08 in 9.0 mi Calm Calm - N/A   Clear
9:35 AM 68.0 °F - 68.0 °F 100% 30.08 in 10.0 mi Calm Calm - N/A   Clear
9:55 AM 71.6 °F - 69.8 °F 94% 30.08 in 10.0 mi Calm Calm - N/A   Clear
10:15 AM 73.4 °F - 69.8 °F 88% 30.08 in 10.0 mi Calm Calm - N/A   Clear
10:35 AM 75.2 °F - 69.8 °F 83% 30.07 in 10.0 mi Calm Calm - N/A   Clear
10:55 AM 77.0 °F - 71.6 °F 83% 30.07 in 10.0 mi South 3.5 mph - N/A   Partly Cloudy
11:15 AM 77.0 °F - 69.8 °F 78% 30.06 in 10.0 mi SSW 4.6 mph - N/A   Scattered Clouds
11:35 AM 78.8 °F - 68.0 °F 69% 30.05 in 10.0 mi SE 3.5 mph - N/A   Scattered Clouds
11:55 AM 78.8 °F - 66.2 °F 65% 30.05 in 10.0 mi SSE 3.5 mph - N/A   Scattered Clouds
12:15 PM 78.8 °F - 66.2 °F 65% 30.05 in 10.0 mi SE 5.8 mph - N/A   Mostly Cloudy
12:35 PM 80.6 °F 82.7 °F 66.2 °F 61% 30.04 in 10.0 mi SSE 4.6 mph - N/A   Partly Cloudy
12:55 PM 80.6 °F 82.7 °F 66.2 °F 61% 30.03 in 10.0 mi Calm Calm - N/A   Scattered Clouds
1:15 PM 80.6 °F 82.7 °F 66.2 °F 61% 30.02 in 10.0 mi ESE 3.5 mph - N/A   Mostly Cloudy
1:35 PM 82.4 °F 83.9 °F 64.4 °F 54% 30.01 in 10.0 mi South 5.8 mph - N/A   Scattered Clouds
1:55 PM 82.4 °F 83.9 °F 64.4 °F 54% 30.00 in 10.0 mi SSE 4.6 mph - N/A   Partly Cloudy
2:15 PM 82.4 °F 84.6 °F 66.2 °F 58% 29.99 in 10.0 mi South 3.5 mph - N/A   Scattered Clouds
2:35 PM 84.2 °F 86.6 °F 66.2 °F 55% 29.98 in 10.0 mi SSW 4.6 mph - N/A   Scattered Clouds
2:55 PM 84.2 °F 85.6 °F 64.4 °F 51% 29.97 in 10.0 mi South 3.5 mph - N/A   Scattered Clouds
3:15 PM 84.2 °F 85.6 °F 64.4 °F 51% 29.97 in 10.0 mi South 3.5 mph - N/A   Clear
3:35 PM 84.2 °F 85.6 °F 64.4 °F 51% 29.96 in 10.0 mi SSE 5.8 mph - N/A   Clear
3:55 PM 82.4 °F 83.9 °F 64.4 °F 54% 29.96 in 10.0 mi South 4.6 mph - N/A   Clear
4:15 PM 82.4 °F 83.9 °F 64.4 °F 54% 29.95 in 10.0 mi Calm Calm - N/A   Partly Cloudy
4:35 PM 84.2 °F 85.6 °F 64.4 °F 51% 29.95 in 10.0 mi SE 5.8 mph - N/A   Scattered Clouds
4:55 PM 84.2 °F 85.6 °F 64.4 °F 51% 29.94 in 10.0 mi SE 3.5 mph - N/A   Partly Cloudy
5:15 PM 82.4 °F 83.9 °F 64.4 °F 54% 29.94 in 10.0 mi Calm Calm - N/A   Clear
5:35 PM 80.6 °F 82.3 °F 64.4 °F 58% 29.94 in 10.0 mi Calm Calm - N/A   Partly Cloudy
5:55 PM 80.6 °F 82.7 °F 66.2 °F 61% 29.94 in 10.0 mi SE 3.5 mph - N/A   Partly Cloudy
6:15 PM 80.6 °F 82.7 °F 66.2 °F 61% 29.94 in 10.0 mi Calm Calm - N/A   Partly Cloudy
6:35 PM 77.0 °F - 68.0 °F 74% 29.94 in 10.0 mi Calm Calm - N/A   Clear
6:55 PM 73.4 °F - 69.8 °F 88% 29.94 in 10.0 mi Calm Calm - N/A   Clear
7:15 PM 71.6 °F - 71.6 °F 100% 29.94 in 10.0 mi Calm Calm - N/A   Clear
7:35 PM 69.8 °F - 69.8 °F 100% 29.94 in 10.0 mi Calm Calm - N/A   Clear
7:55 PM 68.0 °F - 68.0 °F 100% 29.93 in 10.0 mi Calm Calm - N/A   Clear
8:15 PM 68.0 °F - 68.0 °F 100% 29.93 in 10.0 mi Calm Calm - N/A   Clear
8:35 PM 68.0 °F - 68.0 °F 100% 29.93 in 10.0 mi Calm Calm - N/A   Partly Cloudy
8:55 PM 68.0 °F - 68.0 °F 100% 29.94 in 10.0 mi Calm Calm - N/A   Mostly Cloudy
9:15 PM 71.6 °F - 69.8 °F 94% 29.94 in 10.0 mi Calm Calm - N/A   Overcast
9:35 PM 73.4 °F - 71.6 °F 94% 29.94 in 10.0 mi Calm Calm - N/A   Mostly Cloudy
9:55 PM 73.4 °F - 71.6 °F 94% 29.94 in 10.0 mi Calm Calm - N/A   Mostly Cloudy
10:15 PM 73.4 °F - 71.6 °F 94% 29.94 in 10.0 mi Calm Calm - N/A   Mostly Cloudy
10:35 PM 73.4 °F - 73.4 °F 100% 29.94 in 10.0 mi Calm Calm - N/A   Scattered Clouds
10:55 PM 73.4 °F - 73.4 °F 100% 29.93 in 10.0 mi Calm Calm - N/A   Mostly Cloudy
11:15 PM 73.4 °F - 73.4 °F 100% 29.93 in 10.0 mi Calm Calm - N/A   Scattered Clouds
11:35 PM 73.4 °F - 73.4 °F 100% 29.93 in 10.0 mi Calm Calm - N/A   Scattered Clouds
11:55 PM 73.4 °F - 73.4 °F 100% 29.93 in 10.0 mi SE 3.5 mph - N/A   Scattered Clouds